Regional Weather Roundup
Issued by NWS Tiyan, Guam

Home | Current Version | Previous Version | Text Only | Print | Product List | Glossary On
Versions: 1 2 3 4 5 6 7 8 9 10 11 12 13 14 15 16 17 18 19 20 21 22 23 24 25 26 27
000
ASGM40 PGUM 210412
RWRGUM
WEATHER ROUNDUP FOR THE MARIANAS
NATIONAL WEATHER SERVICE TIYAN GU
200 PM CHST MON AUG 21 2017

GUZ001>004-210500-
MARIANA ISLANDS-

CITY           SKY/WX    TMP DP  RH WIND       PRES   REMARKS
GUAM AIRPORT   MOSUNNY   84  77  79 SE10      29.81F HX  94
ANDERSEN AFB   PTSUNNY   84  77  79 S10       29.87F HX  94
ROTA AIRPORT   PTSUNNY   82  77  83 S7        29.80F HX  91
TINIAN AP      PTSUNNY   84  75  74 S8        29.77F HX  92
SAIPAN AP      MOSUNNY   91  77  62 S13       29.79F HX 105

$$





USA.gov is the U.S. government's official web portal to all federal, state and local government web resources and services.